TimePDT,TemperatureF,Dew PointF,Humidity,Sea Level PressureIn,VisibilityMPH,Wind Direction,Wind SpeedMPH,Gust SpeedMPH,PrecipitationIn,Events,Conditions,WindDirDegrees,DateUTC
12:53 AM,32.0,17.6,55,30.26,10.0,North,3.5,-,N/A,,Clear,10,2012-05-06 07:53:00
1:53 AM,41.0,8.1,26,30.16,10.0,Variable,6.9,-,N/A,,Clear,0,2012-05-06 08:53:00
2:53 AM,32.0,15.1,50,30.19,10.0,Calm,Calm,-,N/A,,Clear,0,2012-05-06 09:53:00
3:53 AM,30.0,15.1,54,30.19,10.0,Calm,Calm,-,N/A,,Clear,0,2012-05-06 10:53:00
4:53 AM,28.9,16.0,58,30.19,10.0,South,3.5,-,N/A,,Clear,180,2012-05-06 11:53:00
5:53 AM,27.0,16.0,63,30.20,10.0,SSW,3.5,-,N/A,,Clear,200,2012-05-06 12:53:00
6:53 AM,28.0,17.1,63,30.22,10.0,Calm,Calm,-,N/A,,Clear,0,2012-05-06 13:53:00
7:53 AM,37.9,14.0,38,30.21,10.0,Calm,Calm,-,N/A,,Clear,0,2012-05-06 14:53:00
8:53 AM,46.0,12.9,26,30.20,10.0,Variable,6.9,-,N/A,,Clear,0,2012-05-06 15:53:00
9:53 AM,48.9,12.9,24,30.18,10.0,NE,9.2,-,N/A,,Clear,50,2012-05-06 16:53:00
10:53 AM,51.1,14.0,23,30.19,10.0,NE,8.1,-,N/A,,Clear,50,2012-05-06 17:53:00
11:53 AM,53.1,14.0,21,30.19,10.0,ENE,8.1,18.4,N/A,,Clear,60,2012-05-06 18:53:00
12:53 PM,55.0,14.0,20,30.18,10.0,NNE,8.1,16.1,N/A,,Clear,20,2012-05-06 19:53:00
1:53 PM,57.9,12.9,17,30.15,10.0,ENE,10.4,20.7,N/A,,Clear,60,2012-05-06 20:53:00
2:53 PM,57.0,19.9,24,30.17,10.0,Variable,4.6,-,N/A,,Clear,0,2012-05-06 21:53:00
3:53 PM,57.0,18.0,22,30.17,10.0,Variable,3.5,-,N/A,,Clear,0,2012-05-06 22:53:00
4:53 PM,57.0,17.1,21,30.17,10.0,NNE,6.9,-,N/A,,Clear,20,2012-05-06 23:53:00
5:53 PM,55.9,18.0,23,30.18,10.0,Variable,3.5,-,N/A,,Clear,0,2012-05-07 00:53:00
6:53 PM,52.0,19.9,28,30.20,10.0,Calm,Calm,-,N/A,,Clear,0,2012-05-07 01:53:00
7:53 PM,46.0,21.0,37,30.19,10.0,Calm,Calm,-,N/A,,Clear,0,2012-05-07 02:53:00
8:53 PM,41.0,17.1,38,30.20,10.0,Calm,Calm,-,N/A,,Clear,0,2012-05-07 03:53:00
9:53 PM,37.9,21.0,51,30.22,10.0,Calm,Calm,-,N/A,,Clear,0,2012-05-07 04:53:00
10:53 PM,36.0,19.9,52,30.22,10.0,Calm,Calm,-,N/A,,Clear,0,2012-05-07 05:53:00
11:53 PM,35.1,18.0,50,30.22,10.0,South,3.5,-,N/A,,Clear,190,2012-05-07 06:53:00